sat.trackr.live / text

‹ back to catalog

STARLINK-4256

NORAD 52994 · 2022-076J

PAYLOAD ACTIVE UNKNOWN

§ Identity

Operator
Country
US
Launch date
2022-07-07
Launch site
AFETR
Launch vehicle
Mass (kg)
RCS (m²)

Purposes: comms

External: N2YO · Heavens-Above · Gunter

§ Orbital elements

Epoch: 2026-09-19T18:49:27.218784Z

Period
93.85 min
Inclination
53.1589°
Eccentricity
0.0000845
Mean motion
15.34393876 rev/d
Perigee alt
462.1 km
Apogee alt
463.3 km
Semi-major
6,840.9 km
B*
6.5361e-5
RAAN
286.7133°
Arg perigee
70.5416°
Mean anomaly
289.5678°
Rev number
23,236

§ Raw data

STARLINK-42561 52994U 22076J   26262.78434281  .00001833  00000+0  65361-4 0  99902 52994  53.1589 286.7133 0000845  70.5416 289.5678 15.34393876232362

JSON: /api/v1/satellites/52994 · /tle

For live sub-satellite position, see the globe view (requires WebGL).

§ Visibility from observer

Set your observer location to see the next 7 days of passes ≥ 10°. The values pass through the URL so the page stays shareable.

No JS? Fill the form by hand. The geolocation button needs JavaScript.